Location: Donzy-le-Pr�
(47.3659°N, 3.1107°E)
Time: 21:28:51
(UTC+00:00)

Cosmos 2084 Rocket - Pass Details

Date: 03 March 2021
Orbit: 527 x 653 km, 62.8° (Epoch: 21 April)

Event Time Altitude Azimuth Distance (km) Brightness Sun altitude
Rises 18:22:48 0° 319° (NW) 2,798 7.6 -8.8°
Reaches altitude 10° 18:25:01 10° 321° (NW) 1,917 6.7 -9.1°
Maximum altitude 18:29:21 78° 48° (NE) 622 3.5 -9.9°
Drops below altitude 10° 18:33:51 10° 135° (SE) 1,985 5.7 -10.6°
Enters shadow 18:34:46 - 136° (SE) 2,346 6.1 -10.8°
